This is the latest recevied weather packets stored in our database for station/object F4IKI-10. If no packets are shown the sender has not sent any weather packets the latest 1 day(s).
| Time | Temp. | Humidity | Pressure | Rain* | Wind** | Luminosity | Snow |
|---|---|---|---|---|---|---|---|
| 1777833822 | 21.11° C | 68% | 1014 hPa | - | - | - | - |
| 1777832922 | 21.11° C | 68% | 1013.8 hPa | - | - | - | - |
| 1777832022 | 21.11° C | 67% | 1013.8 hPa | - | - | - | - |
| 1777831122 | 21.11° C | 66% | 1013.8 hPa | - | - | - | - |
| 1777830222 | 21.11° C | 66% | 1013.9 hPa | - | - | - | - |
| 1777829321 | 21.11° C | 67% | 1013.8 hPa | - | - | - | - |
| 1777828421 | 21.11° C | 67% | 1014 hPa | - | - | - | - |
| 1777827521 | 21.11° C | 67% | 1014 hPa | - | - | - | - |
| 1777826621 | 21.11° C | 67% | 1014 hPa | - | - | - | - |
| 1777825721 | 21.11° C | 67% | 1014 hPa | - | - | - | - |
| 1777824821 | 21.11° C | 68% | 1014 hPa | - | - | - | - |
| 1777823921 | 21.11° C | 68% | 1014.3 hPa | - | - | - | - |
| 1777823021 | 21.11° C | 68% | 1014.4 hPa | - | - | - | - |
| 1777822121 | 20.56° C | 70% | 1014.6 hPa | - | - | - | - |
| 1777821220 | 20.56° C | 70% | 1014.8 hPa | - | - | - | - |
| 1777820320 | 20° C | 65% | 1014.6 hPa | - | - | - | - |
| 1777819420 | 20° C | 65% | 1015 hPa | - | - | - | - |
| 1777818520 | 20° C | 65% | 1015.3 hPa | - | - | - | - |
| 1777817620 | 20° C | 66% | 1015.3 hPa | - | - | - | - |
| 1777816720 | 19.44° C | 64% | 1015.1 hPa | - | - | - | - |
| 1777815820 | 19.44° C | 64% | 1015.3 hPa | - | - | - | - |
| 1777814920 | 19.44° C | 64% | 1015.2 hPa | - | - | - | - |
| 1777814020 | 19.44° C | 64% | 1015.4 hPa | - | - | - | - |
| 1777813120 | 19.44° C | 64% | 1015.4 hPa | - | - | - | - |
| 1777812219 | 19.44° C | 63% | 1015.7 hPa | - | - | - | - |
* Rain since midnight (hover to see other rain measurements)
** Current wind speed in m/s (hover to see current wind gust speed)